Satellite-Ground Cal/Val Site Overpasses Predictions

Prediction of Satellite NPP Overpassing Cal/Val Site: Antarctic Dome C

Ground Cal/Val Site Location: Latitude: -75.10, Longitude: 123.35; Satellite-Ground Site NADIR distance within 100 km.

Table of predicted overpasses for the next 14.0 days since TLE Epoch: 2/2/2017
Interval Starting Time Ending Time Minimum Distance Time Minimum Distance (km)
1 02/03/2017 15:01:28 02/03/2017 15:01:52 02/03/2017 15:01:40 59.33
2 02/04/2017 14:42:38 02/04/2017 14:43:03 02/04/2017 14:42:50 49.93
3 02/05/2017 07:44:18 02/05/2017 07:44:38 02/05/2017 07:44:28 72.91
4 02/06/2017 07:25:25 02/06/2017 07:25:52 02/06/2017 07:25:39 35.06
5 02/08/2017 15:07:51 02/08/2017 15:07:57 02/08/2017 15:07:54 96.89
6 02/09/2017 14:48:49 02/09/2017 14:49:18 02/09/2017 14:49:03 14.44
7 02/11/2017 07:31:38 02/11/2017 07:32:07 02/11/2017 07:31:53 3.31
8 02/14/2017 14:55:03 02/14/2017 14:55:31 02/14/2017 14:55:17 21.76
9 02/15/2017 14:36:20 02/15/2017 14:36:35 02/15/2017 14:36:28 85.33
